CSZ9947 ZGSZ-ZSOF

Flight info

Callsign CSZ9947
Flight time 1h 46m
Altitude 33100
Route IDUMA W41 ISLOM G471 PLT A599 P215 H2 VILID
Aircraft A321/M-SDE1FGHILORVWXY/HB1

Departure

Time 2026-04-21 10:29
Airport Shenzhen Bao'an International Airport (ZGSZ)

Arrival

Time 2026-04-21 12:15
Airport Hefei Xinqiao International Airport (ZSOF)
Time Latitude Longitude Altitude Speed Heading
2026-04-21 10:18 22.63332 113.80827 22 ft 0 kts 334°
2026-04-21 10:20 22.63325 113.80831 22 ft 2 kts 334°
2026-04-21 10:20 22.63312 113.80838 22 ft 2 kts 334°
2026-04-21 10:20 22.63298 113.80845 22 ft 2 kts 334°
2026-04-21 10:21 22.63284 113.80852 22 ft 2 kts 356°
2026-04-21 10:21 22.63269 113.80849 22 ft 2 kts 34°
2026-04-21 10:21 22.63262 113.80841 22 ft 0 kts 59°
2026-04-21 10:21 22.63259 113.80834 22 ft 1 kts 62°
2026-04-21 10:22 22.63258 113.80833 22 ft 0 kts 62°
2026-04-21 10:23 22.63262 113.80840 22 ft 6 kts 57°
2026-04-21 10:24 22.63309 113.80952 22 ft 24 kts 63°
2026-04-21 10:24 22.63405 113.81100 22 ft 24 kts 22°
2026-04-21 10:24 22.63563 113.81049 22 ft 27 kts 338°
2026-04-21 10:24 22.63717 113.80961 22 ft 24 kts 332°
2026-04-21 10:25 22.63865 113.80878 22 ft 24 kts 336°
2026-04-21 10:25 22.64016 113.80809 22 ft 23 kts 335°
2026-04-21 10:25 22.64158 113.80728 22 ft 23 kts 331°
2026-04-21 10:25 22.64297 113.80646 22 ft 23 kts 334°
2026-04-21 10:26 22.64440 113.80605 22 ft 17 kts 319°
2026-04-21 10:26 22.64524 113.80516 22 ft 17 kts 319°
2026-04-21 10:26 22.64628 113.80454 22 ft 17 kts 338°
2026-04-21 10:26 22.64741 113.80406 22 ft 18 kts 340°
2026-04-21 10:27 22.64807 113.80379 22 ft 18 kts 338°
2026-04-21 10:27 22.64910 113.80316 22 ft 18 kts 322°
2026-04-21 10:27 22.65019 113.80244 22 ft 19 kts 333°
2026-04-21 10:27 22.65135 113.80253 22 ft 18 kts 53°
2026-04-21 10:28 22.65177 113.80376 22 ft 17 kts 110°
2026-04-21 10:28 22.65071 113.80448 22 ft 26 kts 154°
2026-04-21 10:28 22.64691 113.80650 22 ft 99 kts 156°
2026-04-21 10:28 22.63878 113.81091 23 ft 161 kts 154°
2026-04-21 10:29 22.62803 113.81680 573 ft 174 kts 154°
2026-04-21 10:29 22.61775 113.82260 1365 ft 167 kts 155°
2026-04-21 10:29 22.60781 113.82787 1835 ft 173 kts 157°
2026-04-21 10:29 22.59641 113.83380 2179 ft 189 kts 157°
2026-04-21 10:30 22.58409 113.84023 2529 ft 207 kts 156°
2026-04-21 10:30 22.57056 113.84733 2898 ft 228 kts 156°
2026-04-21 10:30 22.55603 113.85545 3394 ft 245 kts 147°
2026-04-21 10:30 22.54478 113.86946 4180 ft 253 kts 117°
2026-04-21 10:31 22.54105 113.88820 4930 ft 260 kts 91°
2026-04-21 10:31 22.54182 113.90799 5670 ft 264 kts 88°
2026-04-21 10:31 22.54294 113.92825 6289 ft 274 kts 87°
2026-04-21 10:31 22.54433 113.94927 6721 ft 291 kts 81°
2026-04-21 10:32 22.55187 113.96931 6907 ft 292 kts 50°
2026-04-21 10:32 22.56791 113.98217 7191 ft 293 kts 17°
2026-04-21 10:32 22.58708 113.98730 7961 ft 293 kts 11°
2026-04-21 10:32 22.60637 113.99284 8830 ft 292 kts 15°
2026-04-21 10:33 22.62582 113.99983 9613 ft 294 kts 18°
2026-04-21 10:33 22.64503 114.00748 10354 ft 297 kts 19°
2026-04-21 10:33 22.66452 114.01556 10790 ft 310 kts 19°
2026-04-21 10:33 22.68516 114.02421 11099 ft 328 kts 18°
2026-04-21 10:34 22.70771 114.02921 11388 ft 342 kts
2026-04-21 10:34 22.73160 114.02578 11680 ft 357 kts 342°
2026-04-21 10:34 22.75422 114.01632 12023 ft 370 kts 336°
2026-04-21 10:34 22.77815 114.00519 12494 ft 376 kts 336°
2026-04-21 10:35 22.80253 113.99389 12648 ft 376 kts 336°
2026-04-21 10:35 22.82658 113.98295 12651 ft 375 kts 337°
2026-04-21 10:35 22.85078 113.97207 12654 ft 375 kts 337°
2026-04-21 10:35 22.87530 113.96189 12650 ft 376 kts 343°
2026-04-21 10:36 22.90109 113.95658 12655 ft 376 kts 354°
2026-04-21 10:36 22.92694 113.95691 12658 ft 377 kts
2026-04-21 10:36 22.95337 113.96110 12908 ft 383 kts
2026-04-21 10:36 22.97987 113.96592 13669 ft 384 kts
2026-04-21 10:37 23.00612 113.97071 14452 ft 384 kts
2026-04-21 10:37 23.03263 113.97547 15108 ft 387 kts
2026-04-21 10:37 23.05935 113.98020 15732 ft 390 kts
2026-04-21 10:37 23.08629 113.98494 16339 ft 394 kts
2026-04-21 10:38 23.11343 113.98968 16930 ft 397 kts
2026-04-21 10:38 23.14079 113.99442 17503 ft 400 kts
2026-04-21 10:38 23.16845 113.99921 18062 ft 404 kts
2026-04-21 10:38 23.19394 114.00364 18542 ft 407 kts
2026-04-21 10:39 23.22369 114.00884 19112 ft 410 kts
2026-04-21 10:39 23.25180 114.01385 19630 ft 413 kts 11°
2026-04-21 10:39 23.27939 114.02226 20115 ft 417 kts 20°
2026-04-21 10:39 23.30554 114.03579 20600 ft 421 kts 30°
2026-04-21 10:40 23.32956 114.05379 21082 ft 424 kts 36°
2026-04-21 10:40 23.35296 114.07359 21562 ft 427 kts 37°
2026-04-21 10:40 23.37619 114.09363 22020 ft 430 kts 38°
2026-04-21 10:40 23.39955 114.11380 22473 ft 433 kts 38°
2026-04-21 10:41 23.42313 114.13409 22913 ft 435 kts 38°
2026-04-21 10:41 23.44689 114.15448 23339 ft 438 kts 37°
2026-04-21 10:41 23.47078 114.17494 23751 ft 441 kts 37°
2026-04-21 10:41 23.49481 114.19550 24151 ft 443 kts 37°
2026-04-21 10:42 23.51917 114.21635 24544 ft 446 kts 37°
2026-04-21 10:42 23.54347 114.23714 24923 ft 449 kts 37°
2026-04-21 10:42 23.56791 114.25806 25296 ft 451 kts 37°
2026-04-21 10:42 23.59252 114.27912 25661 ft 453 kts 38°
2026-04-21 10:43 23.61723 114.30029 26017 ft 456 kts 38°
2026-04-21 10:43 23.64204 114.32157 26365 ft 458 kts 38°
2026-04-21 10:43 23.66722 114.34281 26698 ft 460 kts 37°
2026-04-21 10:43 23.69288 114.36392 27026 ft 462 kts 36°
2026-04-21 10:44 23.71852 114.38487 27419 ft 463 kts 36°
2026-04-21 10:44 23.74407 114.40575 27893 ft 461 kts 36°
2026-04-21 10:44 23.76951 114.42657 28351 ft 459 kts 36°
2026-04-21 10:44 23.79490 114.44738 28775 ft 458 kts 36°
2026-04-21 10:45 23.82018 114.46813 29176 ft 457 kts 36°
2026-04-21 10:45 23.84541 114.48885 29565 ft 456 kts 37°
2026-04-21 10:45 23.87077 114.50970 29947 ft 455 kts 37°
2026-04-21 10:45 23.89590 114.53037 30316 ft 454 kts 37°
2026-04-21 10:46 23.92098 114.55101 30674 ft 454 kts 37°
2026-04-21 10:46 23.94602 114.57163 31022 ft 453 kts 37°
2026-04-21 10:46 23.97106 114.59226 31360 ft 452 kts 37°
2026-04-21 10:46 23.99599 114.61282 31690 ft 451 kts 37°
2026-04-21 10:47 24.02089 114.63335 32012 ft 450 kts 37°
2026-04-21 10:47 24.04593 114.65401 32329 ft 450 kts 37°
2026-04-21 10:47 24.07069 114.67456 32635 ft 449 kts 37°
2026-04-21 10:47 24.09540 114.69508 32905 ft 449 kts 37°
2026-04-21 10:48 24.12023 114.71561 32919 ft 448 kts 37°
2026-04-21 10:48 24.16979 114.75637 32931 ft 448 kts 37°
2026-04-21 10:49 24.21976 114.79698 32940 ft 448 kts 34°
2026-04-21 10:49 24.27292 114.83177 32951 ft 448 kts 27°
2026-04-21 10:50 24.32985 114.85858 32963 ft 448 kts 19°
2026-04-21 10:50 24.38943 114.87702 32973 ft 448 kts 13°
2026-04-21 10:51 24.45010 114.89179 32980 ft 448 kts 13°
2026-04-21 10:51 24.51062 114.90649 32986 ft 448 kts 13°
2026-04-21 10:52 24.57103 114.92139 32991 ft 448 kts 13°
2026-04-21 10:52 24.63164 114.93644 32997 ft 448 kts 13°
2026-04-21 10:53 24.69209 114.95141 33002 ft 448 kts 13°
2026-04-21 10:53 24.75247 114.96636 33007 ft 447 kts 13°
2026-04-21 10:54 24.81295 114.98124 33010 ft 447 kts 13°
2026-04-21 10:54 24.87355 114.99602 33010 ft 447 kts 13°
2026-04-21 10:55 24.93397 115.01074 33010 ft 447 kts 13°
2026-04-21 10:55 24.99341 115.02524 33010 ft 447 kts 12°
2026-04-21 10:56 25.05491 115.04028 33010 ft 447 kts 12°
2026-04-21 10:56 25.11560 115.05506 33010 ft 449 kts 12°
2026-04-21 10:57 25.17670 115.06984 33010 ft 449 kts 12°
2026-04-21 10:57 25.23759 115.08468 33010 ft 448 kts 12°
2026-04-21 10:58 25.29912 115.09497 33010 ft 448 kts
2026-04-21 10:58 25.36039 115.09162 33010 ft 448 kts 351°
2026-04-21 10:59 25.42018 115.07442 33010 ft 448 kts 339°
2026-04-21 10:59 25.47703 115.04656 33011 ft 448 kts 334°
2026-04-21 11:00 25.53315 115.01730 33010 ft 448 kts 334°
2026-04-21 11:00 25.58937 114.98816 33010 ft 449 kts 334°
2026-04-21 11:01 25.64584 114.95898 33010 ft 451 kts 334°
2026-04-21 11:01 25.70287 114.92970 33007 ft 451 kts 337°
2026-04-21 11:02 25.76407 114.91500 33003 ft 453 kts 358°
2026-04-21 11:02 25.79563 114.91736 33001 ft 455 kts
2026-04-21 11:02 25.85509 114.94124 33000 ft 457 kts 30°
2026-04-21 11:03 25.88099 114.96212 33001 ft 457 kts 41°
2026-04-21 11:03 25.90365 114.98722 33008 ft 457 kts 46°
2026-04-21 11:03 25.94677 115.03907 33010 ft 454 kts 46°
2026-04-21 11:04 25.98939 115.09035 33007 ft 451 kts 46°
2026-04-21 11:04 26.03193 115.14114 33004 ft 448 kts 46°
2026-04-21 11:05 26.07419 115.19151 33004 ft 447 kts 47°
2026-04-21 11:05 26.11651 115.24192 33006 ft 447 kts 47°
2026-04-21 11:06 26.15884 115.29215 33003 ft 447 kts 47°
2026-04-21 11:06 26.20131 115.34273 32999 ft 447 kts 47°
2026-04-21 11:07 26.24349 115.39313 32997 ft 447 kts 47°
2026-04-21 11:07 26.28562 115.44357 32998 ft 447 kts 47°
2026-04-21 11:08 26.32789 115.49423 32996 ft 447 kts 47°
2026-04-21 11:08 26.37000 115.54478 32991 ft 447 kts 47°
2026-04-21 11:09 26.41207 115.59533 32989 ft 447 kts 47°
2026-04-21 11:09 26.45418 115.64600 32989 ft 447 kts 47°
2026-04-21 11:10 26.49630 115.69695 32988 ft 447 kts 47°
2026-04-21 11:10 26.53821 115.74771 32985 ft 447 kts 47°
2026-04-21 11:11 26.58013 115.79837 32986 ft 447 kts 47°
2026-04-21 11:11 26.62228 115.84933 32990 ft 447 kts 47°
2026-04-21 11:12 26.66436 115.90025 33004 ft 447 kts 47°
2026-04-21 11:12 26.70634 115.95109 33007 ft 446 kts 47°
2026-04-21 11:13 26.74822 116.00187 33005 ft 447 kts 47°
2026-04-21 11:13 26.79032 116.05295 33012 ft 447 kts 47°
2026-04-21 11:14 26.83224 116.10386 33025 ft 447 kts 47°
2026-04-21 11:14 26.87415 116.15477 33041 ft 447 kts 47°
2026-04-21 11:15 26.91620 116.20593 33053 ft 447 kts 48°
2026-04-21 11:15 26.95829 116.25689 33051 ft 450 kts 48°
2026-04-21 11:16 27.00099 116.30844 33044 ft 455 kts 48°
2026-04-21 11:16 27.04408 116.36048 33043 ft 460 kts 47°
2026-04-21 11:17 27.08761 116.41302 33052 ft 461 kts 47°
2026-04-21 11:17 27.13136 116.46565 33060 ft 460 kts 47°
2026-04-21 11:18 27.17478 116.51794 33064 ft 460 kts 47°
2026-04-21 11:18 27.21846 116.57068 33065 ft 460 kts 46°
2026-04-21 11:19 27.26271 116.62221 33064 ft 460 kts 46°
2026-04-21 11:19 27.30714 116.67380 33064 ft 460 kts 47°
2026-04-21 11:20 27.35128 116.72545 33065 ft 461 kts 47°
2026-04-21 11:20 27.39564 116.77730 33064 ft 461 kts 46°
2026-04-21 11:21 27.43990 116.82899 33062 ft 460 kts 46°
2026-04-21 11:21 27.48412 116.88066 33067 ft 460 kts 46°
2026-04-21 11:22 27.52820 116.93225 33081 ft 459 kts 46°
2026-04-21 11:22 27.57278 116.98393 33083 ft 457 kts 46°
2026-04-21 11:23 27.61701 117.03510 33074 ft 456 kts 46°
2026-04-21 11:23 27.66103 117.08607 33070 ft 455 kts 46°
2026-04-21 11:24 27.70506 117.13711 33078 ft 454 kts 46°
2026-04-21 11:24 27.74888 117.18794 33088 ft 454 kts 46°
2026-04-21 11:25 27.79269 117.23885 33092 ft 454 kts 46°
2026-04-21 11:25 27.83646 117.28976 33093 ft 454 kts 46°
2026-04-21 11:26 27.88080 117.34140 33093 ft 454 kts 46°
2026-04-21 11:26 27.92500 117.39288 33093 ft 454 kts 46°
2026-04-21 11:27 27.96899 117.44424 33093 ft 454 kts 46°
2026-04-21 11:27 28.01795 117.48965 33092 ft 454 kts 30°
2026-04-21 11:28 28.07658 117.51683 33087 ft 455 kts 13°
2026-04-21 11:28 28.13282 117.52346 33074 ft 455 kts 358°
2026-04-21 11:29 28.16888 117.51892 32898 ft 455 kts 348°
2026-04-21 11:29 28.19985 117.51065 32752 ft 455 kts 345°
2026-04-21 11:29 28.23079 117.50146 32601 ft 456 kts 345°
2026-04-21 11:29 28.26153 117.49221 32451 ft 456 kts 345°
2026-04-21 11:30 28.29232 117.48303 32303 ft 456 kts 345°
2026-04-21 11:30 28.32313 117.47394 32153 ft 457 kts 345°
2026-04-21 11:30 28.35381 117.46495 32035 ft 456 kts 345°
2026-04-21 11:30 28.38439 117.45603 32024 ft 457 kts 345°
2026-04-21 11:31 28.44592 117.43813 31998 ft 457 kts 345°
2026-04-21 11:31 28.50736 117.42028 31977 ft 457 kts 345°
2026-04-21 11:32 28.56864 117.40246 31964 ft 457 kts 345°
2026-04-21 11:32 28.62990 117.38463 31958 ft 457 kts 345°
2026-04-21 11:33 28.69147 117.36668 31957 ft 457 kts 345°
2026-04-21 11:33 28.75285 117.34875 31957 ft 457 kts 345°
2026-04-21 11:34 28.81402 117.33086 31957 ft 457 kts 345°
2026-04-21 11:34 28.87547 117.31286 31957 ft 457 kts 345°
2026-04-21 11:35 28.93666 117.29493 31957 ft 457 kts 345°
2026-04-21 11:35 28.99794 117.27701 31956 ft 459 kts 345°
2026-04-21 11:36 29.05987 117.25889 31956 ft 464 kts 344°
2026-04-21 11:36 29.12246 117.24056 31964 ft 458 kts 343°
2026-04-21 11:37 29.18348 117.22254 31958 ft 452 kts 342°
2026-04-21 11:37 29.24419 117.20453 31957 ft 453 kts 342°
2026-04-21 11:38 29.30558 117.18848 31957 ft 454 kts 347°
2026-04-21 11:38 29.36826 117.18012 31957 ft 457 kts 354°
2026-04-21 11:39 29.43158 117.17996 31958 ft 459 kts 359°
2026-04-21 11:39 29.49494 117.18346 31959 ft 458 kts
2026-04-21 11:40 29.55847 117.18703 31961 ft 458 kts 360°
2026-04-21 11:40 29.62182 117.19021 31966 ft 458 kts 359°
2026-04-21 11:41 29.68513 117.19330 31971 ft 458 kts 359°
2026-04-21 11:41 29.74872 117.19645 31973 ft 458 kts 359°
2026-04-21 11:42 29.80522 117.19948 31975 ft 458 kts 360°
2026-04-21 11:42 29.84178 117.20156 31708 ft 459 kts 360°
2026-04-21 11:42 29.87349 117.20336 31412 ft 458 kts 360°
2026-04-21 11:43 29.90527 117.20513 31114 ft 458 kts 360°
2026-04-21 11:43 29.93694 117.20680 30814 ft 458 kts 360°
2026-04-21 11:43 29.96875 117.20845 30514 ft 457 kts 360°
2026-04-21 11:43 30.00040 117.21009 30214 ft 457 kts 360°
2026-04-21 11:44 30.03195 117.21170 29915 ft 457 kts 360°
2026-04-21 11:44 30.06352 117.21329 29616 ft 457 kts 360°
2026-04-21 11:44 30.09507 117.21486 29317 ft 457 kts 360°
2026-04-21 11:44 30.12677 117.21644 29018 ft 457 kts 360°
2026-04-21 11:45 30.15650 117.21791 28736 ft 457 kts 360°
2026-04-21 11:45 30.18984 117.21956 28418 ft 457 kts 360°
2026-04-21 11:45 30.22140 117.22111 28138 ft 457 kts
2026-04-21 11:45 30.25240 117.22264 27843 ft 457 kts
2026-04-21 11:46 30.28094 117.22405 27574 ft 456 kts
2026-04-21 11:46 30.30160 117.22507 27363 ft 452 kts
2026-04-21 11:46 30.34439 117.22723 26844 ft 444 kts
2026-04-21 11:46 30.37513 117.22875 26468 ft 445 kts
2026-04-21 11:47 30.40614 117.23031 26091 ft 445 kts
2026-04-21 11:47 30.43694 117.23190 25717 ft 445 kts
2026-04-21 11:47 30.46785 117.23349 25339 ft 443 kts
2026-04-21 11:47 30.49777 117.23504 24971 ft 440 kts
2026-04-21 11:48 30.52809 117.23660 24596 ft 437 kts
2026-04-21 11:48 30.55650 117.23805 24243 ft 434 kts
2026-04-21 11:48 30.58694 117.23960 23855 ft 425 kts
2026-04-21 11:48 30.61375 117.24098 23533 ft 416 kts
2026-04-21 11:49 30.63462 117.24205 23386 ft 409 kts
2026-04-21 11:49 30.66664 117.24369 22886 ft 406 kts
2026-04-21 11:49 30.69685 117.24524 22427 ft 403 kts
2026-04-21 11:49 30.72331 117.24657 22021 ft 400 kts
2026-04-21 11:50 30.75164 117.24800 21583 ft 397 kts
2026-04-21 11:50 30.77900 117.24939 21159 ft 395 kts
2026-04-21 11:50 30.80638 117.25080 20731 ft 392 kts
2026-04-21 11:50 30.83305 117.25230 20306 ft 390 kts
2026-04-21 11:51 30.85444 117.25351 19966 ft 388 kts
2026-04-21 11:51 30.87237 117.25454 19687 ft 386 kts
2026-04-21 11:51 30.91038 117.25669 19118 ft 383 kts
2026-04-21 11:51 30.93619 117.25813 18724 ft 381 kts
2026-04-21 11:52 30.95782 117.25925 18394 ft 395 kts
2026-04-21 11:52 30.99050 117.26110 17905 ft 389 kts
2026-04-21 11:52 31.01695 117.26261 17506 ft 384 kts
2026-04-21 11:52 31.04329 117.26410 17105 ft 378 kts
2026-04-21 11:53 31.06839 117.26550 16716 ft 373 kts
2026-04-21 11:53 31.09379 117.26692 16318 ft 368 kts
2026-04-21 11:53 31.11918 117.26833 15914 ft 363 kts
2026-04-21 11:53 31.13476 117.26918 15670 ft 360 kts
2026-04-21 11:54 31.16678 117.27095 15290 ft 351 kts
2026-04-21 11:54 31.19023 117.27227 15045 ft 351 kts
2026-04-21 11:54 31.21461 117.27364 14793 ft 349 kts
2026-04-21 11:54 31.23466 117.27476 14585 ft 348 kts
2026-04-21 11:55 31.26217 117.27621 14292 ft 338 kts
2026-04-21 11:55 31.28501 117.27729 14043 ft 330 kts
2026-04-21 11:55 31.30701 117.27831 13798 ft 323 kts
2026-04-21 11:55 31.32074 117.27894 13659 ft 318 kts
2026-04-21 11:56 31.35039 117.28033 13319 ft 317 kts
2026-04-21 11:56 31.36907 117.28121 13109 ft 316 kts
2026-04-21 11:56 31.39035 117.28221 12865 ft 314 kts
2026-04-21 11:56 31.41449 117.28335 12581 ft 307 kts
2026-04-21 11:57 31.43527 117.28430 12331 ft 300 kts
2026-04-21 11:57 31.45185 117.28507 12130 ft 298 kts
2026-04-21 11:57 31.47574 117.28618 11839 ft 297 kts
2026-04-21 11:57 31.48822 117.28677 11676 ft 297 kts
2026-04-21 11:58 31.51562 117.28807 11237 ft 294 kts
2026-04-21 11:58 31.53047 117.28877 11000 ft 293 kts
2026-04-21 11:58 31.55526 117.28995 10572 ft 290 kts
2026-04-21 11:58 31.57279 117.29077 10241 ft 289 kts
2026-04-21 11:59 31.59305 117.29171 9863 ft 287 kts
2026-04-21 11:59 31.61428 117.29269 9443 ft 287 kts
2026-04-21 11:59 31.63409 117.29361 9043 ft 286 kts
2026-04-21 11:59 31.65355 117.29451 8648 ft 286 kts
2026-04-21 12:00 31.67306 117.29331 8234 ft 287 kts 345°
2026-04-21 12:00 31.68975 117.28190 7848 ft 287 kts 314°
2026-04-21 12:00 31.69632 117.27150 7616 ft 287 kts 297°
2026-04-21 12:00 31.70526 117.24159 7059 ft 271 kts 287°
2026-04-21 12:01 31.71018 117.22230 6688 ft 265 kts 287°
2026-04-21 12:01 31.71473 117.20526 6348 ft 259 kts 288°
2026-04-21 12:01 31.72045 117.18451 5940 ft 252 kts 289°
2026-04-21 12:01 31.72456 117.16989 5662 ft 247 kts 289°
2026-04-21 12:02 31.73514 117.14756 5143 ft 238 kts 322°
2026-04-21 12:02 31.76272 117.12860 4416 ft 227 kts 333°
2026-04-21 12:02 31.77643 117.11970 4038 ft 223 kts 333°
2026-04-21 12:03 31.78944 117.11117 3923 ft 205 kts 332°
2026-04-21 12:03 31.80160 117.10311 3904 ft 198 kts 332°
2026-04-21 12:03 31.81323 117.09533 3821 ft 193 kts 332°
2026-04-21 12:03 31.82492 117.08747 3596 ft 195 kts 332°
2026-04-21 12:04 31.83646 117.08041 3332 ft 190 kts 345°
2026-04-21 12:04 31.84883 117.07954 3025 ft 182 kts
2026-04-21 12:04 31.86110 117.08020 3044 ft 187 kts
2026-04-21 12:04 31.87256 117.08082 3003 ft 186 kts
2026-04-21 12:05 31.88437 117.08146 2996 ft 186 kts
2026-04-21 12:05 31.89671 117.08212 2994 ft 187 kts
2026-04-21 12:05 31.90733 117.08273 2989 ft 189 kts
2026-04-21 12:05 31.91895 117.08357 3018 ft 190 kts
2026-04-21 12:06 31.93107 117.08448 3045 ft 190 kts
2026-04-21 12:06 31.94745 117.08572 3078 ft 190 kts
2026-04-21 12:06 31.96172 117.08541 3086 ft 191 kts 347°
2026-04-21 12:06 31.97418 117.07845 3128 ft 193 kts 332°
2026-04-21 12:07 31.98593 117.07115 3132 ft 197 kts 334°
2026-04-21 12:07 31.99903 117.06348 3153 ft 214 kts 335°
2026-04-21 12:07 32.01143 117.05626 3148 ft 214 kts 335°
2026-04-21 12:07 32.02464 117.04856 3086 ft 214 kts 335°
2026-04-21 12:08 32.03794 117.04081 3012 ft 213 kts 335°
2026-04-21 12:08 32.05114 117.03311 2939 ft 213 kts 335°
2026-04-21 12:08 32.06419 117.02550 2865 ft 213 kts 335°
2026-04-21 12:08 32.07737 117.01781 2767 ft 213 kts 335°
2026-04-21 12:09 32.09067 117.01004 2639 ft 212 kts 335°
2026-04-21 12:09 32.10349 117.00254 2472 ft 197 kts 335°
2026-04-21 12:09 32.11535 116.99563 2310 ft 189 kts 335°
2026-04-21 12:09 32.12692 116.98802 2159 ft 191 kts 320°
2026-04-21 12:10 32.13307 116.97522 2166 ft 174 kts 278°
2026-04-21 12:10 32.13259 116.96151 2179 ft 173 kts 265°
2026-04-21 12:10 32.13160 116.94757 2161 ft 172 kts 265°
2026-04-21 12:10 32.13062 116.93341 2159 ft 172 kts 265°
2026-04-21 12:11 32.12963 116.91939 2157 ft 172 kts 263°
2026-04-21 12:11 32.12495 116.90693 2146 ft 170 kts 223°
2026-04-21 12:11 32.11442 116.90155 2162 ft 168 kts 180°
2026-04-21 12:11 32.10290 116.90232 2170 ft 167 kts 173°
2026-04-21 12:12 32.09213 116.90639 2160 ft 165 kts 150°
2026-04-21 12:12 32.08216 116.91305 2020 ft 166 kts 148°
2026-04-21 12:12 32.07283 116.91942 1804 ft 154 kts 148°
2026-04-21 12:12 32.06466 116.92497 1610 ft 144 kts 148°
2026-04-21 12:13 32.05604 116.93083 1446 ft 146 kts 148°
2026-04-21 12:13 32.04725 116.93679 1260 ft 145 kts 148°
2026-04-21 12:13 32.03875 116.94255 1080 ft 145 kts 148°
2026-04-21 12:13 32.03139 116.94752 921 ft 145 kts 148°
2026-04-21 12:14 32.02347 116.95287 749 ft 145 kts 148°
2026-04-21 12:14 32.01615 116.95784 588 ft 144 kts 148°
2026-04-21 12:14 32.00735 116.96381 373 ft 144 kts 148°
2026-04-21 12:14 31.99785 116.97021 221 ft 139 kts 149°
2026-04-21 12:15 31.99107 116.97494 218 ft 101 kts 148°
2026-04-21 12:15 31.98663 116.97793 218 ft 54 kts 158°
2026-04-21 12:15 31.98477 116.97884 218 ft 12 kts 159°
2026-04-21 12:15 31.98347 116.97909 218 ft 21 kts 179°
2026-04-21 12:16 31.98222 116.97873 218 ft 20 kts 263°
2026-04-21 12:16 31.98286 116.97805 218 ft 19 kts 327°
2026-04-21 12:16 31.98417 116.97712 218 ft 24 kts 329°
2026-04-21 12:16 31.98553 116.97600 218 ft 23 kts 321°
2026-04-21 12:17 31.98693 116.97519 218 ft 23 kts 333°
2026-04-21 12:17 31.98828 116.97438 218 ft 23 kts 333°
2026-04-21 12:17 31.98964 116.97353 218 ft 22 kts 327°
2026-04-21 12:17 31.99083 116.97257 218 ft 22 kts 318°
2026-04-21 12:18 31.99154 116.97108 218 ft 21 kts 265°
2026-04-21 12:18 31.99142 116.96934 218 ft 22 kts 266°
2026-04-21 12:18 31.99145 116.96759 218 ft 21 kts 274°
2026-04-21 12:18 31.99151 116.96588 218 ft 21 kts 268°
2026-04-21 12:19 31.99109 116.96486 218 ft 12 kts 212°
2026-04-21 12:19 31.99056 116.96477 218 ft 0 kts 168°